Weather in Naroch

Belarus     54°33′50″N   26°43′34″E
temp.,
°C
wind,
m/s
gust,
m/s
humid.,
%
clouds,
%
prec.,
mm/h
press.,
hPa
HPBL,
m
16 june, wed
wed1600:00+15nw399787 0.0 1015316
03:00+10nw35945 0.0 101797
06:00+9nnw28955 0.0 1018192
09:00+14n45695 0.0 1019473
12:00+18n335160 0.0 10191127
15:00+20n334393 0.0 10191411
18:00+20nne334956 0.0 10191252
21:00+15ne22735 0.0 102011
17 june, thu
thu1700:00+11nne11815 0.0 102210
03:00+10n11855 0.0 102310
06:00+11ene11820 0.0 102311
09:00+18ene22610 0.0 1024345
12:00+22e23454 0.0 10241286
15:00+24se23425 0.0 10241630
18:00+24se23505 0.0 10231473
21:00+18sse11715 0.0 102411
18 june, fri
fri1800:00+14ese22805 0.0 102516
03:00+13se22905 0.0 102525
06:00+14se248841 0.0 102577
09:00+20sse35685 0.0 1025455
12:00+24s34525 0.0 10251275
15:00+25s44485 0.0 10251449
18:00+25s35565 0.0 10241074
21:00+20sse22795 0.0 102419
19 june, sat
sat1900:00+16sse35835 0.0 102577
03:00+15sse24915 0.0 102561
06:00+15sse24915 0.0 102684
09:00+21sse36690 0.0 1025515
12:00+25sse45590 0.0 10241234
15:00+26s455369 0.0 10241445
18:00+25s346099 0.0 10231010
21:00+21ese228029 0.0 102234
20 june, sun
sun2000:00+17sse388866 0.0 1023150
03:00+16sse25935 0.0 102382
06:00+16sse24915 0.0 102393
09:00+22sse35723 0.0 1022507
12:00+25sse45583 0.0 10221531
15:00+26s44520 0.0 10211744
18:00+26sse33587 0.0 10201404
21:00+22se24810 0.0 102068